Location: Les Jeannots
(43.2262°N, 5.5774°E)
Time: 18:12:08
(UTC+00:00)

Terra - Pass Details

Date: 05 July 2020
Orbit: 701 x 703 km, 98.2° (Epoch: 13 August)

Event Time Altitude Azimuth Distance (km) Brightness Sun altitude
Exits shadow 22:10:44 28° 215° (SW) 1,298 2.9 -20.8°
Maximum altitude 22:12:35 40° 262° (W) 1,034 2.7 -20.9°
Drops below altitude 10° 22:17:04 10° 332° (NNW) 2,179 5.5 -21.2°
Sets 22:19:28 0° 340° (NNW) 3,102 6.7 -21.4°
